軌道要素
Epoch 2010 Nov. 20.0 TT = JDT 2455520.5
T 2010 Nov. 12.81881 TT Spoto
q 2.7415234 (2000.0) P Q
n 0.10903691 Peri. 54.37298 -0.87889309 -0.45387892
a 4.3393068 Node 98.22357 +0.37550684 -0.84804468
e 0.3682117 Incl. 8.52801 +0.29417943 -0.27352173
P 9.04
From 94 observations 2002 Apr. 1-2020 Apr. 1, mean residual 0".9.
Nongravitational parameters Y1 = +0.03, Y2 = -0.0017, Y3 = -0.0902.
|